Regional Weather Roundup
Issued by NWS Goodland, KS

Home | Current Version | Previous Version | Text Only | Print | Product List | Glossary Off
Versions: 1 2 3 4 5 6 7 8 9 10 11 12 13 14 15 16 17 18 19 20 21 22 23 24 25 26 27 28 29 30 31 32 33 34 35 36 37 38 39 40 41 42 43 44 45 46 47 48 49 50

000
ASUS43 KGLD 242308
RWRGLD

GOODLAND FORECAST AREA HOURLY WEATHER ROUNDUP
NATIONAL WEATHER SERVICE GOODLAND KS
400 PM MST WED DEC 24 2014

...OFFICIAL OBSERVATIONS...

CITY           SKY/WX    TMP DP  RH WIND       PRES   REMARKS
GOODLAND KS    CLEAR     40  20  44 SW15      29.71F
HILL CITY KS   PTCLDY    45  13  27 SW8       29.76S
IMPERIAL NEB   PTCLDY    40  23  50 SW9       29.65F
MCCOOK NEB     PTCLDY    42  21  43 SW8       29.69F
AKRON CO       MOCLDY    40  24  53 S10       29.64F
BURLINGTON CO  CLEAR     38  19  46 SW13      29.70F
LIMON CO       PTCLDY    38  20  48 S8        29.67F
$$

...UNOFFICIAL OBSERVATIONS...

CITY           SKY/WX    TMP DP  RH WIND       PRES   REMARKS
COLBY KS       CLEAR     39  27  60 SW9       29.73F
GOVE KS          N/A     45  32  60 MISG        N/A
NORTON KS      CLEAR     39  18  41 SW7       29.72F
SHARON SPRINGS   N/A     43  17  35 SW8         N/A
TRIBUNE KS     CLEAR     45  19  36 SW10      29.77S
KIT CARSON CO    N/A     41  18  39 MISG        N/A
YUMA CO          N/A     40  26  57 S5          N/A
$$



USA.gov is the U.S. government's official web portal to all federal, state and local government web resources and services.